Location: *
(57.8420°S, 159.8600°W)
Time: 04:22:31
(UTC+00:00)

Cosmos 2098 Rocket - Pass Details

Date: 18 May 2021
Orbit: 365 x 1178 km, 82.9° (Epoch: 23 June)

Event Time Altitude Azimuth Distance (km) Brightness Sun altitude
Rises 04:38:43 0° 337° (NNW) 2,286 6.5 -16.9°
Reaches altitude 10° 04:40:45 10° 331° (NNW) 1,406 5.4 -17.1°
Maximum altitude 04:43:38 49° 254° (WSW) 507 3.0 -17.5°
Enters shadow 04:46:12 13° 179° (S) 1,277 4.6 -17.8°
